map of IGU home
Great Circle Mapper logo
IGU - Airport
Location
City:  Iguaçu Falls, Paraná, Brazil
Near (Alt.):Iguazu Falls
Name:Cataratas International Airport
ICAO / IATA:SBFI / IGU

Details
Type:Airport (Aerodrome, Airfield)
Use:Public/Civil, International (customs port of entry)
Latitude:25°35'46"S (-25.596149)
Longitude:54°29'14"W (-54.487205)
Datum:WGS 1984
Elevation:787 ft (240 m)
Variation:15.86°W (WMM2015 magnetic declination)
-0.17° annual change
Runways:1
Longest:7201 × 148 ft (2195 × 45 m), paved

Time
Time Zone:UTC-3 (DST-2)
Local Time:

Weather
METAR:SBFI 221400Z 05007KT CAVOK 25/19 Q1019
TAF:SBFI 221030Z 2212/2312 04008KT CAVOK TX26/2218Z TN19/2309Z
BECMG 2221/2223 9999 SCT020 PROB40 2300/2304 5000 RA BKN010
RMK PCF

Related Locations
Nearby:
Farthest:SHI: 12374 mi / 19914 km
Shimojishima, Shimoji Island, JP

Find:

   beyond  
but within

Other Information
Maps:
NOTAMs:
Links:
Sources:

  
flag of Brazil
flag of Paraná
  

Sectional Chart

Flight Planning
at skyvector.com

Satellite Image

Google Maps Satellite View

 

Copyright © 2004-2015 Karl L. Swartz. All rights reserved.
The Great Circle Mapper name and logo are trademarks of the Great Circle Mapper.
All other trademarks mentioned herein belong to their respective owners.
Please see credits for attibutions and further copyright information.

  Follow gcmap on Facebook Follow gcmap on Twitter Follow gcmap on Google+

hCard Microformat

Geo Microformat